User: anonymous   Login
Location: Maddington
(51.2000°N, 1.9167°W)
Time: 00:11:34
(UTC+00:00)
Language:

CZ-2C R/B - Orbit

View from above orbital plane
View from above orbital plane
View from above satellite
View from above satellite

Ground track
Ground track

The orbit data is extracted from the following two-line orbital elements,

1 31114U 07010B   20336.52152015 +.00000049 +00000-0 +41155-4 0  9996
2 31114 098.2406 178.0264 0060437 139.2692 221.3027 14.19338879706701
Epoch (UTC): 01 December 2020 12:30:59
Eccentricity: 0.0060437
inclination: 98.2406°
perigee height: 784 km
apogee height: 871 km
right ascension of ascending node: 178.0264°
argument of perigee: 139.2692°
revolutions per day: 14.19338879
mean anomaly at epoch: 221.3027°
orbit number at epoch: 70670

The dashed part of the orbit path shows where the satellite is in the earth's shadow,  

DLR